User: anonymous   Login
Location: Campo Alegre
(10.4289°N, 66.6519°W)
Time: 16:54:35
(UTC+00:00)
Language:

Cosmos 494 Rocket - Orbit

View from above orbital plane
View from above orbital plane
View from above satellite
View from above satellite

Ground track
Ground track

The orbit data is extracted from the following two-line orbital elements,

1  6061U 72043B   24207.54225013  .00000519  00000-0  16814-3 0  9994
2  6061  74.0554  65.1831 0020702 263.7419  96.1378 14.41380660732073
Epoch (UTC): 25 July 2024 13:00:50
Eccentricity: 0.0020702
inclination: 74.0554°
perigee height: 739 km
apogee height: 769 km
right ascension of ascending node: 65.1831°
argument of perigee: 263.7419°
revolutions per day: 14.41380660
mean anomaly at epoch: 96.1378°
orbit number at epoch: 73207

The dashed part of the orbit path shows where the satellite is in the earth's shadow,  

DLR